TimeEDT,TemperatureF,Dew PointF,Humidity,Sea Level PressureIn,VisibilityMPH,Wind Direction,Wind SpeedMPH,Gust SpeedMPH,PrecipitationIn,Events,Conditions,WindDirDegrees,DateUTC
12:54 AM,69.1,62.1,78,29.97,10.0,North,6.9,-,N/A,,Clear,350,2013-08-02 04:54:00
1:54 AM,66.9,61.0,81,29.97,10.0,Calm,Calm,-,N/A,,Scattered Clouds,0,2013-08-02 05:54:00
2:54 AM,66.0,62.1,87,29.96,10.0,West,6.9,-,N/A,,Clear,280,2013-08-02 06:54:00
3:54 AM,64.9,62.1,90,29.96,10.0,Calm,Calm,-,N/A,,Clear,0,2013-08-02 07:54:00
4:54 AM,66.0,62.1,87,29.98,10.0,WNW,3.5,-,N/A,,Clear,290,2013-08-02 08:54:00
5:54 AM,64.9,61.0,87,30.00,10.0,WNW,3.5,-,N/A,,Partly Cloudy,290,2013-08-02 09:54:00
6:54 AM,64.9,61.0,87,30.01,10.0,WNW,4.6,-,N/A,,Partly Cloudy,290,2013-08-02 10:54:00
7:54 AM,69.1,63.0,81,30.02,10.0,West,5.8,-,N/A,,Clear,270,2013-08-02 11:54:00
8:54 AM,72.0,63.0,73,30.02,10.0,West,8.1,-,N/A,,Clear,260,2013-08-02 12:54:00
9:54 AM,75.9,61.0,60,30.03,10.0,Variable,3.5,-,N/A,,Clear,0,2013-08-02 13:54:00
10:54 AM,77.0,60.1,56,30.04,10.0,Variable,5.8,-,N/A,,Partly Cloudy,0,2013-08-02 14:54:00
11:54 AM,79.0,60.1,52,30.05,10.0,Variable,4.6,-,N/A,,Partly Cloudy,0,2013-08-02 15:54:00
12:54 PM,79.0,57.9,48,30.05,10.0,WSW,9.2,-,N/A,,Mostly Cloudy,250,2013-08-02 16:54:00
1:54 PM,81.0,57.0,44,30.04,10.0,SW,9.2,-,N/A,,Mostly Cloudy,220,2013-08-02 17:54:00
2:54 PM,82.0,57.9,44,30.02,10.0,West,6.9,-,N/A,,Partly Cloudy,270,2013-08-02 18:54:00
3:54 PM,84.0,57.9,41,30.01,10.0,SW,9.2,-,N/A,,Partly Cloudy,230,2013-08-02 19:54:00
4:54 PM,82.9,57.9,42,30.01,10.0,WSW,6.9,-,N/A,,Scattered Clouds,250,2013-08-02 20:54:00
5:54 PM,82.9,57.9,42,30.01,10.0,WNW,8.1,-,N/A,,Partly Cloudy,290,2013-08-02 21:54:00
6:54 PM,79.0,59.0,50,30.01,10.0,NW,5.8,-,N/A,,Partly Cloudy,320,2013-08-02 22:54:00
7:54 PM,77.0,61.0,58,30.01,10.0,Calm,Calm,-,N/A,,Clear,0,2013-08-02 23:54:00
8:54 PM,73.9,61.0,64,30.03,10.0,NW,4.6,-,N/A,,Clear,310,2013-08-03 00:54:00
9:54 PM,73.9,60.1,62,30.03,10.0,Calm,Calm,-,N/A,,Clear,0,2013-08-03 01:54:00
10:54 PM,71.1,61.0,70,30.04,10.0,NNW,4.6,-,N/A,,Clear,330,2013-08-03 02:54:00
11:54 PM,69.1,61.0,75,30.04,10.0,Calm,Calm,-,N/A,,Clear,0,2013-08-03 03:54:00